EW7961 Weather Reports


Display with metric or nautical units.
time (UTC)temp
F
wind
direction
speed
MPH
gust
MPH
rain 1hr
in
rain 24hr
in
rain mn
in
humidity
%
barometer
mb
20260509012017 63 322 1.0 3.0 0.01 0.01 0.01 81 1009.1
20260509011100 64 355 2.0 3.0 0.01 0.01 0.01 78 1009.2
20260509010020 65 336 2.0 5.0 0.00 0.00 0.00 75 1009.3
20260509005020 67 335 2.0 7.0 0.00 0.00 0.00 71 1008.9
20260509004017 68 294 1.0 4.0 0.00 0.00 0.00 68 1008.7
20260509003017 69 285 2.0 5.0 0.00 0.00 0.00 63 1008.9
20260509002020 69 291 2.0 4.0 0.00 0.00 0.00 60 1008.8
20260509001017 70 272 2.0 4.0 0.00 0.00 0.00 60 1008.7
20260509000021 70 263 3.0 6.0 0.00 0.00 0.00 59 1008.5
20260508235101 71 266 2.0 5.0 0.00 0.00 0.00 58 1008.5
20260508234018 72 275 2.0 4.0 0.00 0.00 0.00 56 1008.4
20260508233018 72 271 2.0 4.0 0.00 0.00 0.00 54 1008.4
20260508232018 73 273 2.0 4.0 0.00 0.00 0.00 53 1008.5
20260508231059 74 275 2.0 6.0 0.00 0.00 0.00 52 1008.5
20260508230018 75 277 2.0 5.0 0.00 0.00 0.00 50 1008.5
20260508225019 75 269 3.0 6.0 0.00 0.00 0.00 49 1008.5
20260508224019 76 252 3.0 6.0 0.00 0.00 0.00 48 1008.5
20260508223019 78 256 3.0 7.0 0.00 0.00 0.00 45 1008.5
20260508222019 77 275 3.0 6.0 0.00 0.00 0.00 45 1008.5
20260508221059 77 258 3.0 6.0 0.00 0.00 0.00 44 1008.6
20260508220019 78 255 3.0 7.0 0.00 0.00 0.00 43 1008.7
20260508215100 78 263 3.0 6.0 0.00 0.00 0.00 43 1008.7
20260508214019 78 274 3.0 6.0 0.00 0.00 0.00 43 1008.8
20260508213059 77 256 3.0 7.0 0.00 0.00 0.00 45 1008.9
20260508212020 76 269 3.0 6.0 0.00 0.00 0.00 46 1009.1
20260508211100 78 261 2.0 4.0 0.00 0.00 0.00 43 1009.1
20260508210017 79 270 3.0 6.0 0.00 0.00 0.00 42 1009.2
20260508205057 78 264 3.0 5.0 0.00 0.00 0.00 45 1009.4
20260508204017 77 270 3.0 7.0 0.00 0.00 0.00 45 1009.5
20260508203020 76 273 3.0 5.0 0.00 0.00 0.00 48 1009.6
20260508202021 76 258 3.0 6.0 0.00 0.00 0.00 48 1009.7
20260508201020 76 251 3.0 7.0 0.00 0.00 0.00 47 1009.7
20260508200017 77 257 3.0 6.0 0.00 0.00 0.00 45 1009.9
20260508195018 76 260 3.0 7.0 0.00 0.00 0.00 44 1009.9
20260508194018 75 264 2.0 4.0 0.00 0.00 0.00 47 1010.0
20260508193018 74 270 3.0 4.0 0.00 0.00 0.00 49 1010.1
20260508192104 73 265 3.0 6.0 0.00 0.00 0.00 50 1010.1
20260508191018 73 271 2.0 5.0 0.00 0.00 0.00 52 1010.2
20260508190058 73 275 2.0 5.0 0.00 0.00 0.00 51 1010.3
20260508185059 73 270 2.0 5.0 0.00 0.00 0.00 51 1010.3
20260508184018 73 275 3.0 5.0 0.00 0.00 0.00 51 1010.4
20260508183019 73 269 3.0 4.0 0.00 0.00 0.00 51 1010.6
20260508182019 72 272 2.0 3.0 0.00 0.00 0.00 52 1010.8
20260508181019 72 261 2.0 4.0 0.00 0.00 0.00 52 1010.9
20260508180019 71 266 2.0 4.0 0.00 0.00 0.00 53 1011.0
20260508175019 71 276 2.0 5.0 0.00 0.00 0.00 52 1011.1
20260508174019 70 286 2.0 4.0 0.00 0.00 0.00 55 1011.3
20260508173028 69 272 2.0 5.0 0.00 0.00 0.00 57 1011.5
20260508172028 68 278 2.0 3.0 0.00 0.00 0.00 58 1011.6
20260508171029 67 272 1.0 3.0 0.00 0.00 0.00 58 1011.6
20260508170028 66 282 2.0 3.0 0.00 0.00 0.00 60 1011.9
20260508165109 65 280 1.0 2.0 0.00 0.00 0.00 62 1012.2
20260508164149 65 301 1.0 2.0 0.00 0.00 0.00 62 1012.4
20260508163029 65 320 1.0 2.0 0.00 0.00 0.00 61 1012.5
20260508162149 65 306 0.0 2.0 0.00 0.00 0.00 61 1012.6
20260508161029 65 308 1.0 2.0 0.00 0.00 0.00 60 1012.7
20260508160029 65 315 1.0 3.0 0.00 0.00 0.00 59 1012.8
20260508155030 65 287 2.0 3.0 0.00 0.00 0.00 58 1012.9
20260508154029 65 294 2.0 2.0 0.00 0.00 0.00 58 1012.8
20260508153109 65 307 1.0 3.0 0.00 0.00 0.00 58 1012.6
20260508152110 65 338 1.0 2.0 0.00 0.00 0.00 58 1012.8
20260508151030 65 326 1.0 3.0 0.00 0.00 0.00 57 1013.0
20260508150030 65 288 1.0 2.0 0.00 0.00 0.00 57 1013.3
20260508145030 66 290 2.0 4.0 0.00 0.00 0.00 56 1013.4
20260508144110 65 287 1.0 2.0 0.00 0.00 0.00 60 1013.5
20260508143031 64 297 1.0 2.0 0.00 0.00 0.00 61 1013.6
20260508142111 63 317 1.0 3.0 0.00 0.00 0.00 61 1013.2
20260508141031 62 321 1.0 3.0 0.00 0.00 0.00 63 1013.3
20260508140031 62 290 1.0 2.0 0.00 0.00 0.00 66 1013.3
20260508135031 61 332 2.0 3.0 0.00 0.00 0.00 68 1013.4
20260508134031 60 332 2.0 3.0 0.00 0.00 0.00 70 1013.3
20260508133031 60 270 2.0 3.0 0.00 0.00 0.00 69 1013.3
20260508132031 59 319 3.0 3.0 0.00 0.00 0.00 70 1013.4
20260508131032 58 264 3.0 3.0 0.00 0.00 0.00 71 1013.4
20260508130032 58 256 3.0 4.0 0.00 0.00 0.00 71 1013.4
20260508125031 58 256 3.0 4.0 0.00 0.00 0.00 71 1013.4
20260508124032 58 243 3.0 4.0 0.00 0.00 0.00 71 1013.3
20260508123032 58 253 3.0 4.0 0.00 0.00 0.00 70 1013.3
20260508122017 56 260 3.0 4.0 0.00 0.00 0.00 72 1013.4
20260508121017 54 276 4.0 4.0 0.00 0.00 0.00 76 1013.5
20260508120017 53 300 4.0 4.0 0.00 0.00 0.00 78 1013.5
20260508115018 52 248 3.0 4.0 0.00 0.00 0.00 79 1013.4
20260508114018 52 271 3.0 4.0 0.00 0.00 0.00 80 1013.4
20260508113018 52 251 3.0 4.0 0.00 0.00 0.00 80 1013.3
20260508112018 52 302 3.0 4.0 0.00 0.00 0.00 80 1013.3
20260508111018 52 324 3.0 4.0 0.00 0.00 0.00 79 1013.2
20260508110018 52 286 3.0 4.0 0.00 0.00 0.00 77 1013.1
20260508105018 52 326 3.0 4.0 0.00 0.00 0.00 76 1013.2
20260508104058 52 290 3.0 4.0 0.00 0.00 0.00 74 1013.2
20260508103019 52 281 3.0 4.0 0.00 0.00 0.00 73 1013.2
20260508102019 52 272 3.0 4.0 0.00 0.00 0.00 73 1013.2
20260508101139 52 271 3.0 4.0 0.00 0.00 0.00 72 1013.3
20260508100019 52 251 3.0 4.0 0.00 0.00 0.00 72 1013.3
20260508095019 52 281 3.0 4.0 0.00 0.00 0.00 71 1013.3
20260508094019 52 249 3.0 4.0 0.00 0.00 0.00 71 1013.4
20260508093019 52 283 3.0 4.0 0.00 0.00 0.00 72 1013.4
20260508092019 52 252 3.0 4.0 0.00 0.00 0.00 73 1013.5
20260508091020 52 259 3.0 4.0 0.00 0.00 0.00 75 1013.5
20260508090020 52 260 3.0 4.0 0.00 0.00 0.00 76 1013.4
20260508085100 52 281 3.0 4.0 0.00 0.00 0.00 77 1013.4
20260508084020 52 314 3.0 4.0 0.00 0.00 0.00 77 1013.4
20260508083020 52 351 3.0 4.0 0.00 0.00 0.00 77 1013.4
20260508082020 52 319 3.0 4.0 0.00 0.00 0.00 77 1013.4
20260508081020 52 293 3.0 4.0 0.00 0.00 0.00 76 1013.4
20260508080020 52 311 3.0 4.0 0.00 0.00 0.00 76 1013.5
20260508075018 52 326 3.0 4.0 0.00 0.00 0.00 76 1013.5
20260508074018 53 265 3.0 4.0 0.00 0.00 0.00 77 1013.5
20260508073018 53 269 3.0 4.0 0.00 0.00 0.00 77 1013.6
20260508072018 53 359 3.0 4.0 0.00 0.00 0.00 76 1013.7
20260508071019 53 308 3.0 4.0 0.00 0.00 0.00 75 1013.7
20260508070018 53 334 3.0 4.0 0.00 0.00 0.00 75 1013.8
20260508065019 53 323 3.0 4.0 0.00 0.00 0.00 75 1013.9
20260508064019 53 343 3.0 4.0 0.00 0.00 0.00 75 1014.1
20260508063019 54 6 3.0 4.0 0.00 0.00 0.00 75 1014.2
20260508062022 54 24 3.0 4.0 0.00 0.00 0.00 75 1014.3
20260508061019 54 346 3.0 4.0 0.00 0.00 0.00 74 1014.3
20260508060019 55 28 3.0 4.0 0.00 0.00 0.00 74 1014.4
20260508055020 55 35 2.0 4.0 0.00 0.00 0.00 73 1014.4
20260508054019 55 13 3.0 4.0 0.00 0.00 0.00 72 1014.4
20260508053020 55 22 3.0 4.0 0.00 0.00 0.00 71 1014.4
20260508052020 56 274 3.0 4.0 0.00 0.00 0.00 70 1014.4
20260508051020 56 255 3.0 4.0 0.00 0.00 0.00 69 1014.3
20260508050017 56 288 3.0 4.0 0.00 0.00 0.00 68 1014.3
20260508045020 56 324 3.0 4.0 0.00 0.00 0.00 65 1014.3
20260508044022 56 292 3.0 4.0 0.00 0.00 0.00 65 1014.4
20260508043020 56 343 3.0 4.0 0.00 0.00 0.00 64 1014.3
20260508042017 57 250 3.0 4.0 0.00 0.00 0.00 64 1014.3
20260508041017 57 262 3.0 4.0 0.00 0.00 0.00 63 1014.3
20260508040018 57 242 3.0 4.0 0.00 0.00 0.00 63 1014.3
20260508035018 57 246 3.0 4.0 0.00 0.00 0.00 62 1014.2
20260508034021 57 261 3.0 4.0 0.00 0.00 0.00 61 1014.3
20260508033018 57 289 3.0 4.0 0.00 0.00 0.00 60 1014.3
20260508032018 57 255 3.0 4.0 0.00 0.00 0.00 59 1014.3
20260508031018 58 272 3.0 4.0 0.00 0.00 0.00 59 1014.3
20260508030059 58 242 3.0 4.0 0.00 0.00 0.00 57 1014.4
20260508025019 58 248 3.0 4.0 0.00 0.00 0.00 56 1014.3
20260508024059 59 243 3.0 3.0 0.00 0.00 0.00 54 1014.4
20260508023018 59 255 3.0 4.0 0.00 0.00 0.00 54 1014.3
20260508022019 59 243 3.0 4.0 0.00 0.00 0.00 53 1014.2
20260508021019 60 245 3.0 3.0 0.00 0.00 0.00 52 1014.1
20260508020019 60 252 3.0 4.0 0.00 0.00 0.00 51 1014.0
20260508015019 61 257 3.0 4.0 0.00 0.00 0.00 49 1013.9
20260508014019 62 276 2.0 3.0 0.00 0.00 0.00 48 1013.8
20260508013057 62 267 2.0 3.0 0.00 0.00 0.00 47 1013.7